Location: Nairn
(57.5833°N, 3.8667°W)
Time: 01:44:25
(UTC+00:00)

CZ-2C R/B - Pass Details

Date: 07 August 2020
Orbit: 501 x 568 km, 97.7° (Epoch: 27 September)

Event Time Altitude Azimuth Distance (km) Brightness Sun altitude
Rises 03:16:27 0° 20° (NNE) 2,742 7.9 -7.7°
Reaches altitude 10° 03:18:47 10° 30° (NNE) 1,831 7.1 -7.5°
Maximum altitude 03:22:23 33° 96° (E) 926 4.4 -7.2°
Drops below altitude 10° 03:25:53 10° 161° (SSE) 1,780 5.2 -6.9°
Sets 03:28:07 0° 172° (S) 2,653 5.9 -6.6°
